Regional Weather Roundup
Issued by NWS

Home | Current Version | Previous Version | Graphics & Text | Print | Product List | Glossary On
Versions: 1 2 3 4 5 6 7 8 9 10 11 12 13 14 15 16 17 18 19 20 21 22 23 24 25 26 27 28 29 30 31 32 33 34 35 36 37 38 39 40 41 42 43 44 45 46 47 48 49 50
000
ASUS43 KMKX 271621
RWRWI

WISCONSIN REGIONAL WEATHER ROUNDUP
NATIONAL WEATHER SERVICE MILWAUKEE/SULLIVAN WI
1100 AM CDT FRI MAY 27 2016

NOTE: "FAIR" INDICATES FEW OR NO CLOUDS BELOW 12,000 FEET WITH NO
SIGNIFICANT WEATHER AND/OR OBSTRUCTIONS TO VISIBILITY.

WIZ001-002-006>008-014>016-023>028-271700-
NORTHWEST WISCONSIN

CITY           SKY/WX    TMP DP  RH WIND       PRES   REMARKS
SUPERIOR ARPT  LGT RAIN  46  46  97 NE6       29.91R
ASHLAND        CLOUDY    59  56  89 N5        29.89F
HAYWARD        CLOUDY    65  57  75 N5        29.87F
SIREN          CLOUDY    64  60  89 SW5       29.85F
CUMBERLAND     CLOUDY    63  59  88 NE3       29.85F
RICE LAKE      CLOUDY    65  58  78 CALM      29.86F
CHETEK         CLOUDY    65  59  82 NE3       29.84F
LADYSMITH      CLOUDY    68  59  71 CALM      29.87F
EAU CLAIRE     CLOUDY    67  59  75 N5        29.80F
MENOMONIE      CLOUDY    65  64  99 NW3       29.82S
NEW RICHMOND   LGT RAIN  64  60  89 NW3       29.82F
OSCEOLA        RAIN      64  64 100 S5        29.87F
$$

WIZ003>005-009-010-017-018-271700-
NORTH CENTRAL WISCONSIN

CITY           SKY/WX    TMP DP  RH WIND       PRES   REMARKS
MANITOWISH WTR NOT AVBL
ARBOR VITAE    CLOUDY    69  60  72 NE3       29.90F
WOODRUFF       CLOUDY    69  60  72 NE3       29.90F
RHINELANDER    CLOUDY    69  58  67 CALM      29.90F
EAGLE RIVER      N/A     68  58  69 NE6       29.90F
LAND O LAKES   CLOUDY    69  59  69 CALM      29.93S
PHILLIPS       CLOUDY    66  58  75 CALM      29.88F
TOMAHAWK       CLOUDY    68  58  69 E5        29.89S
MEDFORD        CLOUDY    65  59  82 E6        29.87S
MERRILL        LGT RAIN  66  63  88 SE7       29.90R
$$

WIZ029-030-035-036-043>047-271700-
CENTRAL WISCONSIN

CITY           SKY/WX    TMP DP  RH WIND       PRES   REMARKS
WAUSAU         CLOUDY    69  60  73 CALM      29.87R
MOSINEE        CLOUDY    64  63  94 VRB6      29.90R
MARSHFIELD     CLOUDY    70  60  70 E12       29.85S
STEVENS POINT  CLOUDY    68  60  76 E6        29.88F
WAUPACA        LGT RAIN  71  67  88 S3        29.89R
WAUTOMA        CLOUDY    70  64  81 E9        29.87F
WISC RAPIDS    PTSUNNY   74  60  61 E10       29.86F
CAMP DOUGLAS   PTSUNNY   73  73 100 SE12      29.84F
$$

WIZ011>013-019>022-031-037>040-048>050-271700-
NORTHEAST WISCONSIN

CITY           SKY/WX    TMP DP  RH WIND       PRES   REMARKS
ANTIGO         CLOUDY    68  60  75 SE5       29.92R
SHAWANO        CLOUDY    73  63  68 E3        29.89R
OCONTO         CLOUDY    68  65  91 NE5       29.88S
STURGEON BAY   NOT AVBL
GREEN BAY      CLOUDY    73  63  70 NE8       29.87R
MANITOWOC      CLOUDY    65  59  81 SE6       29.89S
APPLETON       TSTM      70  61  73 SW20G25   29.90R VSB 1
CLINTONVILLE   CLOUDY    73  61  64 CALM      29.88S
OSHKOSH        RAIN      68  63  84 W7        29.89R
$$

WIZ032>034-041-042-053>061-271700-
SOUTHWEST WISCONSIN

CITY           SKY/WX    TMP DP  RH WIND       PRES   REMARKS
LA CROSSE      MOSUNNY   74  64  71 CALM      29.80F
SPARTA         CLOUDY    73  61  67 SE10G18   29.83R
VIROQUA        PTSUNNY   71  62  72 SE14      29.83S
BOSCOBEL       PTSUNNY   76  62  62 S9G17     29.82F
PRAIRIE DU CHI CLOUDY    72  61  68 SE7       29.80S
PLATTEVILLE    CLOUDY    70  65  84 S9        29.84F
$$

WIZ056-057-062-063-064-067-068-271700-
SOUTH CENTRAL WISCONSIN

CITY           SKY/WX    TMP DP  RH WIND       PRES   REMARKS
REEDSBURG      CLOUDY    74  64  70 S7        29.85F
BARABOO/DELLS  CLOUDY    74  61  63 S17       29.86F
LONE ROCK      CLOUDY    74  62  66 S13       29.85F
MINERAL POINT  CLOUDY    72  64  78 S8        29.86S
MADISON        PTSUNNY   72  62  71 S8        29.86S
MIDDLETON      PTSUNNY   76  62  62 S9        29.87S
WATERTOWN      CLOUDY    73  65  74 SW6       29.87S
MONROE         PTSUNNY   75  63  64 S13       29.86F
JANESVILLE     PTSUNNY   75  64  69 S8        29.87S
$$

WIZ051-052-058>065-066-070>072-271700-
SOUTHEAST WISCONSIN

CITY           SKY/WX    TMP DP  RH WIND       PRES   REMARKS
MILWAUKEE      CLOUDY    73  67  81 SE6       29.88S
WAUKESHA       PTSUNNY   72  66  83 S8        29.90S HAZE
MILWAUKEE/TIMM PTSUNNY   73  64  73 S6        29.89R
RACINE         CLOUDY    75  65  70 S3        29.90S
BURLINGTON     CLOUDY    73  66  77 S8        29.89S
KENOSHA        CLOUDY    75  68  78 S10       29.89S
FOND DU LAC    RAIN      68  65  90 W10G23    29.89R
SHEBOYGAN      CLOUDY    68  61  78 SE8       29.88S
WEST BEND      CLOUDY    72  66  83 S5        29.89R
JUNEAU         LGT RAIN  68  65  89 SW7       29.91R
$$

LSZ147-162-271700-
LAKE SUPERIOR

STATION/POSITION TIME  TEMP    WIND        PRES    WAVE
                       AIR SEA DIR/SP/G            HT/PER
                 (UTC) (F)     (DEG/KT/KT) (MB)    (FT/S)
W MID LAKE BUOY  1550   40 38  110/  4/  6 1013.9R   0
DEVILS ISLAND    1600   43      90/ 11/ 11 1013.4S
SAXON HARBOR     1500   50     340/  4/  4 1012.5
$$

LMZ867-665-643>646-271700-
LAKE MICHIGAN

STATION/POSITION TIME  TEMP    WIND        PRES    WAVE
                       AIR SEA DIR/SP/G            HT/PER
                 (UTC) (F)     (DEG/KT/KT) (MB)    (FT/S)
CHAMBERS ISLAND  1500   58     350/  4/  5 1012.9
N MID LAKE BUOY  1550   47 46   40/  6/  8 1013.4F   1
NORTHPORT PIER   1500   53     140/  7/ 10 1013.2R
SISTER BAY       1519   68        CALM       N/A
ALGOMA LAKESHORE 1517           80/  9/  9   N/A
KEWAUNEE LAKESHO 1600   54     120/  3/  4 1012.2R
SHEBOYGAN LAKESH 1600   52     150/  8/  9 1012.3F
PORT WASHINGTON  1540   59     170/  2/  3 1012.9S
S MID LAKE BUOY  1550   54 50  170/ 10/ 12 1013.1R   1/ 3
KENOSHA   LAKESH 1600   61     170/ 10/ 14 1012.2R
$$

TC  - TEMPERATURE IN CELSIUS
VSB - VISIBILITY IN STATUTE MILES
WCI - WIND CHILL INDEX
HX  - HEAT INDEX





USA.gov is the U.S. government's official web portal to all federal, state and local government web resources and services.